Theta_e
337 338 338 338 337 338 338 338 337 337 337 335 334 333 336 337 338 337 339 340 339 339 338 337 335 334 334 334 334 334 337 338 339 339 340 339 340 339 340 339 338 337 337 336 334 337 332 333 332 331 331 329 329 327 326 326 327 327 327 326 325 324 322 321 320 319 316 313 313 312 312 315 317 312 310 308 307 306 307 306 309 307 306 306 306
337 336 336 337 337 337 338 337 336 335 336 335 333 333 336 337 338 338 338 339 339 339 338 337 336 335 334 334 334 335 336 336 336 338 339 340 339 339 339 339 337 336 336 334 333 333 333 332 328 327 330 330 330 329 328 332 328 326 326 322 326 324 321 321 321 319 314 310 309 309 309 309 313 309 309 308 308 308 309 307 307 306 306 306 309
334 335 335 336 336 336 337 336 336 336 336 335 334 334 336 336 337 338 338 338 339 339 338 336 336 336 335 335 335 334 336 338 338 339 340 338 338 338 338 338 336 335 336 335 334 331 329 327 327 327 327 328 325 326 325 324 323 325 325 320 319 319 323 325 323 321 314 314 313 309 305 305 308 306 307 307 305 306 306 307 309 305 304 304 307
331 332 333 335 335 336 336 336 335 336 336 334 334 333 336 336 337 338 338 338 339 339 339 338 338 337 337 336 336 335 335 337 336 335 334 334 333 335 335 334 332 332 333 333 333 332 330 328 328 326 328 326 324 322 324 324 322 323 326 323 318 316 317 318 322 319 319 315 309 309 307 305 301 303 303 305 305 305 306 306 308 307 306 307 306
331 331 332 334 334 334 335 336 336 335 335 334 335 334 337 336 337 338 338 337 339 339 339 338 339 336 337 336 335 334 334 333 332 331 332 332 330 329 330 331 331 330 330 329 329 326 326 326 325 324 323 323 325 323 321 322 324 324 324 319 316 316 315 315 313 318 317 319 314 313 309 308 307 304 302 302 304 302 305 306 310 308 305 308 304
332 331 332 334 334 334 335 335 335 335 335 335 336 335 337 336 337 338 338 338 338 338 338 338 336 335 333 331 329 329 328 329 328 329 329 329 328 329 330 330 331 330 330 329 329 327 324 324 325 323 323 323 325 322 321 320 320 319 320 320 317 316 312 309 309 316 315 316 315 313 313 310 302 302 302 297 306 306 305 305 303 305 307 306 305
332 333 333 334 334 333 334 335 335 335 335 337 336 336 337 337 338 338 338 338 338 338 338 338 335 334 332 331 330 329 328 328 330 330 330 329 329 328 328 328 328 328 327 326 327 327 325 324 324 323 323 321 324 322 320 317 317 319 319 317 316 317 312 308 309 309 309 310 313 311 317 317 308 302 301 299 296 300 303 301 302 305 305 305 307
331 332 333 334 334 334 333 335 335 336 336 336 336 337 337 338 338 338 338 338 338 337 337 337 335 334 332 331 331 330 329 329 330 329 329 329 328 327 326 326 327 328 326 325 325 325 323 323 322 321 320 320 322 318 317 317 317 318 318 316 315 315 312 308 307 308 303 306 313 310 313 312 310 309 305 300 298 297 297 303 304 302 303 303 308
332 332 333 333 334 334 335 335 336 336 337 336 336 337 338 339 339 338 338 337 337 337 337 335 335 334 333 332 330 331 331 330 330 330 329 328 325 324 325 326 326 326 326 324 324 324 325 321 320 319 319 319 319 316 314 315 314 314 313 313 311 312 314 312 309 307 308 307 308 307 305 306 306 306 306 306 303 297 298 298 298 302 303 303 302
332 333 334 334 335 335 336 336 336 336 337 338 337 338 338 339 339 338 337 337 336 336 336 334 335 335 333 332 331 330 331 330 329 328 327 326 324 323 323 323 323 322 323 323 322 321 319 320 315 314 316 317 316 313 313 313 313 313 312 312 311 310 310 309 308 307 307 306 306 305 304 303 303 303 303 303 303 302 298 298 299 298 297 299 304
331 332 333 334 335 336 336 335 336 336 337 337 337 337 338 338 339 338 337 337 337 335 335 334 335 335 333 332 331 330 330 328 327 326 327 326 323 322 323 323 323 322 321 321 321 320 319 317 314 314 316 319 315 313 312 312 311 311 312 311 311 309 308 309 309 308 306 306 304 304 303 303 302 301 300 302 300 298 298 300 300 301 300 300 302
330 331 332 333 333 334 335 334 335 335 336 336 336 337 337 338 338 337 337 337 336 335 335 335 335 335 334 333 332 331 329 328 326 325 326 325 323 322 324 322 321 320 321 320 318 317 317 316 317 314 312 310 310 310 310 311 311 311 311 311 311 310 310 309 307 305 304 304 304 304 303 304 303 302 303 302 302 300 299 298 297 298 300 302 304
330 330 330 332 332 332 333 333 334 334 334 335 335 335 336 337 337 336 336 336 336 335 335 335 335 335 334 333 332 331 329 327 326 325 325 324 323 323 322 320 319 318 318 319 318 316 316 315 313 311 311 312 311 310 310 310 310 309 309 309 309 308 307 307 306 305 305 304 302 303 303 303 302 303 303 301 301 300 298 295 298 299 297 298 301
329 329 330 331 332 332 333 333 333 334 334 335 335 334 335 336 337 336 336 336 336 335 335 334 335 335 334 333 332 331 328 327 326 325 325 324 324 323 321 320 319 319 318 317 318 317 317 316 314 311 311 310 310 309 309 309 308 308 308 308 308 308 307 306 305 305 305 304 303 303 303 302 301 303 302 301 300 299 297 297 296 296 297 300 298
330 329 330 331 332 332 332 333 333 333 334 334 334 334 333 334 336 335 335 336 336 335 335 334 334 335 335 334 332 330 328 327 326 326 326 325 324 323 322 321 320 319 318 318 319 316 315 313 312 311 310 309 309 309 310 308 309 309 309 309 308 307 306 306 305 305 304 303 303 303 303 302 302 302 301 302 302 300 299 298 296 295 294 295 296
329 329 330 331 332 332 332 333 333 333 333 334 334 334 332 333 336 336 335 336 336 335 334 335 334 334 335 333 331 330 328 327 326 326 326 326 324 323 323 322 321 320 320 319 318 315 313 313 311 309 309 309 309 308 308 307 306 306 305 306 306 309 306 305 304 303 303 302 302 302 301 301 303 303 303 302 302 302 301 300 297 296 293 291 293
328 328 330 330 331 332 332 332 333 333 333 333 334 334 332 332 334 335 335 336 336 335 334 335 335 334 334 333 331 329 328 327 326 326 326 325 324 323 323 322 321 320 320 319 316 313 312 311 310 309 308 308 308 308 307 307 306 307 306 305 305 306 305 304 303 304 303 303 302 302 301 301 301 302 302 303 302 302 301 299 298 297 296 292 291
328 329 330 331 331 331 332 333 333 333 334 334 334 334 333 332 334 335 335 334 336 335 335 334 334 334 333 332 331 329 328 327 327 326 325 324 324 323 323 321 320 321 319 318 315 313 313 314 309 309 308 307 307 307 307 307 306 305 305 305 305 305 305 305 305 303 303 303 303 302 302 302 303 300 301 301 300 300 300 300 299 298 296 294 293
327 328 329 330 330 331 331 332 333 334 334 335 335 334 333 332 334 336 335 335 335 336 335 335 335 334 334 332 331 330 329 328 327 326 325 324 323 323 322 321 320 318 317 315 313 312 310 310 309 308 307 307 307 307 307 306 305 304 305 304 304 303 302 301 302 303 303 303 302 301 301 300 301 301 301 300 300 300 299 299 299 300 299 296 294
327 328 329 330 330 331 331 332 332 333 334 334 334 334 332 332 333 335 335 335 334 335 334 334 334 334 333 332 331 330 329 328 327 325 325 324 323 322 321 319 318 317 316 314 313 311 310 309 308 308 307 306 306 306 306 305 304 304 305 303 303 303 303 302 302 303 305 304 302 301 301 301 302 301 300 300 300 302 301 300 300 300 299 298 297
327 328 328 329 330 331 331 332 333 334 334 334 334 333 333 333 333 333 334 334 334 334 334 334 334 334 332 331 331 330 328 328 326 326 324 324 322 321 320 320 319 316 315 314 313 311 310 310 308 308 306 306 306 305 306 305 304 304 304 303 303 303 302 301 303 302 303 301 301 301 301 301 301 300 299 301 301 301 301 300 301 298 297 297 296
327 328 328 329 329 330 331 332 333 332 332 332 333 334 334 333 333 334 334 334 334 334 334 334 334 334 332 331 330 330 328 327 326 325 324 323 320 320 319 318 317 316 315 314 312 311 310 309 308 306 306 306 306 305 305 305 304 303 303 305 303 302 301 301 302 301 302 303 300 299 300 300 301 300 299 300 300 299 301 298 298 299 297 298 298
326 327 328 329 329 329 330 331 331 331 332 332 332 333 334 334 334 334 333 334 335 335 335 334 334 333 332 332 331 329 328 327 325 324 324 321 319 319 319 318 316 315 315 314 312 311 310 309 307 306 306 305 305 305 305 304 303 303 303 303 303 301 302 302 301 301 301 301 300 301 300 302 304 300 300 299 299 299 300 299 298 298 297 297 298
326 327 328 329 329 329 329 330 331 331 331 331 331 332 333 334 334 334 333 334 335 335 335 335 334 333 332 331 330 329 327 326 325 324 322 320 319 318 319 318 317 315 314 313 312 311 310 308 307 306 305 305 305 305 305 304 303 303 303 303 303 303 303 302 301 300 301 301 300 299 300 301 301 299 298 297 297 298 298 298 297 297 296 296 296
326 326 327 328 328 327 328 330 331 331 331 331 331 331 332 333 334 334 334 335 335 335 335 334 334 332 331 330 328 327 326 325 324 323 320 319 318 318 318 317 316 314 313 312 312 311 309 308 307 306 305 305 305 305 304 303 303 303 303 304 304 303 303 302 301 301 306 300 301 300 301 301 300 297 296 295 295 295 297 298 295 295 295 295 295
326 327 327 326 327 328 328 329 330 331 331 331 331 331 332 332 334 335 334 334 335 335 335 334 333 331 330 329 327 326 325 325 323 321 320 319 317 317 316 316 315 314 312 312 311 310 309 307 306 306 305 305 305 305 304 304 304 304 304 304 304 304 303 302 302 302 301 302 300 300 300 300 299 297 295 294 294 294 295 295 294 293 293 293 292
326 326 327 327 327 326 327 328 330 331 331 331 331 331 332 332 333 334 334 334 335 334 334 333 332 331 329 328 327 325 325 323 321 320 319 318 317 316 316 315 315 314 312 311 310 309 309 307 306 306 306 305 305 305 304 304 305 305 305 305 304 303 302 303 302 302 302 302 301 300 299 297 296 295 293 292 292 293 296 293 295 293 293 291 291
327 327 326 326 326 327 327 327 328 329 331 331 332 332 331 332 333 333 333 334 334 334 333 332 331 330 328 327 326 325 323 321 320 319 318 318 317 316 315 315 314 313 311 310 310 309 308 307 306 306 306 305 304 304 304 304 304 305 305 304 304 302 302 302 302 301 302 301 301 298 296 295 295 294 293 292 292 292 293 293 292 293 293 292 291
326 326 327 326 326 326 327 327 328 328 329 330 331 331 331 332 333 333 333 334 334 333 332 331 330 328 327 326 325 324 322 320 319 318 318 317 317 316 315 314 313 312 312 311 310 309 307 306 306 306 305 305 304 304 305 305 305 306 305 304 303 302 302 301 300 300 300 301 298 296 295 294 301 302 302 301 303 302 294 292 292 293 294 292 291
325 326 326 327 327 327 327 327 327 328 329 329 330 331 331 331 331 332 333 332 332 332 331 330 329 327 326 325 324 322 320 320 319 318 317 317 316 315 314 313 313 312 311 310 309 308 307 306 305 304 304 305 304 305 308 307 306 305 304 304 303 302 301 301 301 300 300 299 296 295 301 304 302 301 302 299 297 299 303 298 294 293 293 292 291
325 326 326 327 327 327 327 327 328 328 329 329 330 330 331 331 331 332 332 332 332 331 330 329 327 326 325 323 322 320 320 319 318 318 317 316 316 314 313 313 313 312 310 309 309 307 306 305 305 304 304 304 305 305 302 298 299 302 304 302 302 301 301 301 300 299 299 299 296 296 296 301 302 304 300 298 296 296 295 295 297 299 300 295 292
323 325 326 326 326 326 326 327 328 329 329 329 329 329 330 329 330 331 332 332 331 330 329 328 326 325 323 322 321 320 318 318 318 317 316 316 315 313 312 312 311 310 309 308 307 306 305 305 305 304 304 304 304 303 296 297 298 299 303 303 302 302 302 301 300 300 300 299 295 295 296 300 298 297 297 297 298 297 295 294 294 294 293 294 296
316 320 323 326 327 326 326 327 329 329 329 330 330 329 329 329 329 331 332 331 330 329 328 327 325 323 322 321 320 319 318 317 317 317 316 316 314 312 311 310 309 309 308 307 306 306 305 305 305 304 304 305 303 297 295 296 297 298 299 302 303 302 302 301 301 300 300 299 296 295 297 299 301 306 305 297 296 297 300 297 296 296 296 295 292
316 319 324 326 327 327 327 327 329 330 330 330 330 329 330 331 330 331 331 330 329 328 327 325 324 322 321 320 319 318 317 317 317 316 316 315 313 311 310 310 309 308 307 306 305 304 304 304 304 304 304 304 301 296 295 295 295 296 298 300 302 302 302 301 301 301 301 300 298 296 297 299 298 301 297 294 293 292 292 292 293 294 295 299 298
316 318 324 326 326 326 326 326 328 329 329 330 329 329 330 331 331 330 330 330 329 327 326 324 323 322 320 319 318 317 317 316 316 316 315 314 312 310 309 308 308 307 306 305 304 303 304 304 304 304 303 304 303 295 294 294 294 295 296 298 300 303 302 301 301 301 301 301 300 300 299 298 298 296 295 294 292 291 291 292 292 294 296 297 297
316 318 323 325 326 326 326 327 328 329 329 330 329 329 329 329 330 329 329 329 327 326 325 323 321 320 319 319 318 317 316 316 316 316 315 314 311 309 308 307 306 306 305 304 303 304 303 303 304 304 303 304 303 293 293 294 294 293 297 301 299 299 299 299 299 300 300 301 301 300 299 298 296 293 298 296 295 292 291 291 292 293 295 295 297
316 321 324 326 327 327 328 328 328 329 329 328 329 329 329 328 328 329 328 327 325 323 322 322 320 320 319 319 318 317 316 316 315 315 314 313 309 308 307 307 305 304 304 303 302 302 303 303 303 303 303 302 300 294 293 294 293 294 297 299 299 298 299 299 299 300 300 300 301 299 298 296 293 291 293 290 292 295 291 292 293 291 293 293 295
316 322 325 326 327 328 328 329 328 328 328 328 328 328 327 327 327 327 326 324 323 322 322 320 320 319 319 319 318 317 316 315 315 314 314 312 309 308 307 306 305 304 303 303 303 303 303 304 303 303 303 302 300 296 293 293 293 294 298 299 298 298 298 299 299 299 299 298 301 310 304 296 293 292 291 290 291 294 290 291 292 291 291 292 293
319 321 322 324 327 328 328 328 328 327 327 328 328 327 326 325 325 326 325 323 322 321 321 320 319 319 319 319 318 317 316 315 315 314 313 310 308 307 307 307 305 305 304 304 304 303 302 302 303 303 307 303 300 297 293 293 293 294 299 299 299 297 298 298 299 298 298 299 299 307 306 299 294 293 290 290 291 294 291 291 291 291 290 290 291
322 323 325 326 327 327 327 327 327 326 327 327 327 327 325 325 325 325 324 323 322 321 321 321 320 319 319 318 317 316 315 314 314 313 311 309 308 307 306 305 304 304 303 302 301 301 301 301 302 302 305 302 299 297 295 292 293 294 297 300 300 299 298 297 296 298 298 296 298 297 298 293 292 290 289 289 290 293 291 290 291 290 289 290 290
322 322 321 327 328 328 327 327 327 327 327 327 326 325 324 324 324 324 323 323 324 323 322 321 320 319 319 317 316 316 314 314 314 312 310 309 307 306 305 304 303 302 302 300 300 300 300 300 300 301 302 300 300 298 296 292 293 294 296 298 300 299 296 295 294 297 297 297 297 295 293 293 290 290 290 289 290 290 292 291 290 290 291 292 292
321 320 324 327 327 327 327 326 326 326 326 326 325 323 323 323 324 323 323 325 325 323 322 321 320 319 319 317 316 315 314 314 313 312 309 307 306 305 304 303 302 301 300 299 298 298 298 298 301 303 302 300 301 301 296 293 292 294 294 296 298 297 295 293 294 294 296 296 296 295 293 292 290 290 290 290 290 290 290 292 291 291 291 291 291
323 324 326 326 326 325 326 325 326 326 326 325 324 322 322 322 323 323 325 325 324 323 322 321 320 319 318 317 316 314 313 313 312 310 308 305 304 304 303 303 301 300 299 298 298 299 300 301 302 301 301 300 299 299 296 295 292 292 293 294 295 292 292 296 293 292 292 292 294 295 296 295 290 290 290 290 290 290 290 290 290 289 290 289 290
326 326 326 325 326 326 325 325 325 325 325 325 323 321 321 321 322 324 325 325 324 323 322 320 318 317 315 315 314 313 313 312 310 308 306 304 304 304 303 302 301 300 299 300 301 301 301 301 300 300 299 298 298 297 295 294 293 292 292 293 292 291 291 292 293 291 293 290 289 293 295 292 290 290 290 290 289 290 289 289 289 289 289 290 290
325 325 324 325 326 324 324 324 325 325 325 325 324 321 319 320 323 324 324 324 323 322 320 318 316 313 313 313 313 312 310 309 309 307 305 304 304 304 302 302 301 300 300 300 300 301 300 300 300 300 298 297 296 295 294 293 293 292 292 292 291 291 290 290 289 292 291 290 288 289 292 291 290 290 290 289 289 289 289 289 289 289 292 289 290
323 324 324 325 325 324 324 323 324 325 325 324 324 323 319 321 324 323 324 323 320 318 315 314 313 312 312 312 311 310 309 308 307 307 306 305 304 303 302 301 301 300 300 300 300 300 299 299 298 298 297 297 296 294 293 293 294 294 292 291 291 290 291 290 292 293 292 290 289 289 289 290 290 290 290 288 288 290 290 289 289 290 291 289 289
319 320 320 325 324 323 323 323 323 324 325 324 324 324 323 324 324 324 323 321 318 315 312 312 311 311 311 311 309 307 306 306 306 306 306 305 304 303 302 301 300 300 299 299 299 298 298 297 297 298 297 297 296 294 293 292 292 292 292 292 290 290 291 290 291 290 291 289 288 289 289 289 290 289 290 290 290 292 292 292 291 292 293 292 292
319 318 318 323 324 323 322 322 322 324 325 325 324 323 324 325 324 324 321 319 314 312 311 311 310 309 308 309 308 299 303 305 305 305 305 304 304 303 302 301 300 300 299 298 297 296 296 297 297 297 297 297 295 294 293 292 291 292 291 291 289 290 288 287 287 288 289 291 290 290 289 289 289 290 289 289 289 290 290 289 290 290 291 292 294
317 317 318 321 322 322 323 322 322 324 325 325 324 324 325 324 324 323 320 316 313 309 311 310 309 308 307 306 306 305 305 304 304 305 305 305 303 303 302 301 302 301 300 298 297 297 297 297 299 298 297 296 295 294 295 293 293 292 291 291 289 289 288 287 290 290 293 293 291 289 290 289 288 288 289 290 289 290 290 291 292 292 292 291 292
318 319 320 319 318 320 321 321 322 324 324 324 324 324 323 323 323 321 319 315 312 312 311 309 308 307 306 304 304 305 305 305 304 304 304 304 299 299 301 301 300 297 295 295 294 297 298 298 298 298 299 298 296 297 293 292 292 291 291 291 291 290 289 289 290 290 292 291 291 289 289 288 289 288 289 288 289 289 290 291 293 292 293 292 292
319 318 318 318 319 319 319 319 321 322 322 322 322 323 322 322 321 319 317 314 313 310 309 308 306 305 302 303 304 304 305 305 304 304 304 302 301 300 296 296 297 296 294 293 293 294 295 294 298 297 296 294 294 292 292 292 291 291 291 290 290 289 289 289 290 290 289 288 288 287 287 288 287 289 288 290 288 288 288 288 290 292 293 293 291
Wind_Speed
14 16 16 16 15 14 11 11 11 10 11 13 13 12 9 10 10 10 8 8 8 8 7 9 7 6 6 7 7 5 6 6 7 7 7 6 6 6 6 6 6 5 4 5 4 3 3 1 1 4 3 4 4 4 4 1 1 2 1 2 1 2 3 5 4 8 9 5 5 3 4 3 3 3 3 3 3 3 5 3 3 4 3 2 2
14 12 13 13 13 13 11 11 12 14 11 13 14 13 9 10 10 9 7 8 8 8 7 7 5 6 7 7 6 6 6 7 6 6 7 7 6 6 6 7 7 6 4 3 3 2 1 1 3 4 4 3 3 2 4 3 1 2 2 1 0 3 3 4 6 6 2 6 5 2 2 3 3 3 3 3 3 3 3 3 2 3 2 1 1
16 18 16 16 17 15 13 12 12 14 12 14 13 13 11 11 9 8 8 8 7 8 8 7 5 6 6 6 7 5 4 6 6 6 7 7 5 5 5 6 7 7 7 6 5 4 4 4 3 4 4 3 3 2 1 2 1 1 3 4 2 2 3 2 2 0 5 4 4 5 2 1 1 2 1 3 3 3 3 4 2 1 2 2 2
18 17 16 16 17 16 14 14 13 12 12 12 13 14 11 10 9 9 9 8 8 8 7 5 6 5 6 7 6 6 6 7 7 7 7 6 5 4 3 5 6 5 6 6 6 5 5 4 3 2 3 3 4 2 1 3 2 2 2 3 4 4 2 1 1 1 5 8 3 3 5 4 2 3 2 1 1 3 3 2 2 1 1 2 3
18 17 16 16 16 17 17 16 14 14 14 14 14 14 9 12 11 10 8 8 8 8 8 6 7 7 6 6 7 9 8 8 8 6 6 5 5 4 5 5 6 5 4 4 4 5 5 4 5 4 4 3 2 2 3 3 1 2 3 3 3 4 3 2 2 3 5 4 4 3 2 2 3 3 3 0 1 2 1 1 0 0 1 1 0
21 21 20 20 19 16 14 16 16 15 15 14 14 12 11 11 11 9 8 8 9 9 9 8 8 9 8 10 10 9 9 9 9 9 7 7 6 3 4 4 4 4 4 4 5 4 4 3 3 3 3 1 2 3 3 5 4 3 1 3 3 3 6 4 2 0 3 2 2 2 3 3 5 4 3 2 1 1 3 1 1 0 0 1 1
19 20 19 17 16 17 17 18 19 17 15 13 12 12 12 12 10 11 10 8 9 9 10 8 7 7 9 9 9 10 10 6 6 6 8 6 6 5 4 3 3 5 5 6 5 4 3 2 3 3 3 4 3 4 5 5 4 4 3 6 3 2 5 4 5 4 1 1 1 1 3 1 6 7 3 3 1 1 0 1 1 1 1 0 1
18 19 20 21 21 22 21 20 18 17 15 13 13 12 13 13 13 11 9 9 8 9 9 10 9 7 8 8 8 9 9 9 9 8 6 6 7 6 4 4 3 4 6 6 6 5 4 2 2 4 4 3 5 5 4 3 5 5 5 4 4 4 4 7 5 1 5 2 0 1 2 4 6 1 4 6 5 5 3 1 0 2 1 1 0
20 18 19 20 21 20 20 18 16 15 14 15 14 13 12 12 12 11 11 10 9 10 9 10 9 8 8 8 8 7 8 9 8 7 7 7 7 5 5 5 3 4 5 6 6 6 4 4 3 4 4 5 5 5 4 5 5 5 5 6 6 5 5 4 6 4 4 1 1 2 3 4 4 4 2 2 2 3 1 3 2 1 1 3 3
20 23 22 21 19 19 18 16 15 16 16 13 13 11 12 12 12 13 13 10 9 10 9 9 8 8 9 8 10 9 8 8 8 8 7 7 8 6 6 4 4 5 6 5 5 6 5 5 6 6 5 6 5 5 5 4 4 5 5 5 5 6 4 6 7 5 5 4 4 3 4 2 5 6 5 5 3 2 5 5 4 5 3 4 3
16 17 19 20 17 16 15 17 17 14 12 13 13 13 12 12 12 14 13 11 10 10 9 10 9 9 9 10 11 11 10 11 10 9 8 8 8 7 6 5 5 5 5 6 5 5 5 5 6 5 5 5 6 5 4 5 4 5 5 5 5 6 5 6 6 5 6 6 6 7 6 6 4 3 2 3 3 2 4 3 1 3 5 1 4
18 17 16 14 13 12 13 15 16 16 14 14 13 12 13 12 13 14 13 13 11 10 9 10 9 10 8 9 11 11 12 11 12 12 11 11 9 8 6 6 5 6 6 6 6 6 5 5 6 6 6 6 6 5 4 4 4 4 5 5 5 5 5 6 6 7 6 7 6 6 6 5 5 5 3 4 5 2 3 3 2 1 2 4 1
19 18 16 16 17 17 17 16 15 15 16 17 15 14 13 13 15 15 14 14 13 12 10 10 10 10 10 9 9 10 11 12 11 11 10 9 9 7 7 7 6 6 7 7 6 6 6 6 6 6 6 4 5 5 4 4 5 6 6 6 6 6 6 6 7 6 6 7 6 5 6 6 6 3 4 4 3 5 5 4 1 1 2 2 2
20 19 18 18 18 17 18 19 18 16 16 17 15 14 13 13 14 16 15 14 13 13 11 11 11 10 10 8 10 10 10 11 10 10 9 8 8 7 7 8 7 7 7 7 7 6 6 6 6 6 5 5 5 5 5 5 5 6 5 6 6 5 6 7 7 6 6 5 5 7 6 6 6 5 4 6 5 5 5 3 1 3 2 1 2
20 19 18 18 19 19 18 18 17 16 18 18 15 14 14 14 15 17 15 15 14 14 12 12 10 11 9 8 10 9 10 9 9 9 9 9 8 7 7 7 7 6 7 6 7 7 8 7 6 6 5 5 5 5 5 6 5 6 6 6 6 6 6 7 6 7 8 7 6 6 7 6 6 5 6 6 5 5 4 3 5 3 4 4 5
19 19 18 19 20 19 17 16 16 15 17 16 17 15 15 16 16 16 16 15 15 14 13 12 11 10 10 10 11 11 9 9 8 8 8 9 9 8 8 7 7 8 7 7 5 7 8 8 7 6 5 5 5 6 6 6 6 7 6 6 6 4 7 7 6 7 8 7 7 6 7 6 5 5 5 6 4 4 5 5 6 6 5 2 4
18 19 19 21 18 17 17 17 16 15 16 17 18 17 17 16 15 16 15 14 14 15 14 12 11 10 11 10 11 11 11 11 10 10 10 9 9 7 8 7 8 8 8 6 8 8 8 8 8 7 5 5 6 6 6 6 5 5 6 6 6 5 6 6 5 6 6 6 6 6 6 6 5 5 5 5 4 4 5 6 6 7 5 6 2
22 22 23 23 21 21 18 17 19 19 19 18 17 14 14 15 16 16 15 16 15 15 14 13 12 11 11 12 12 11 11 11 10 11 9 10 8 7 7 8 7 7 7 7 9 9 8 9 8 6 5 6 6 6 6 6 6 6 6 6 5 5 5 5 5 6 7 6 6 6 5 6 4 5 4 4 4 4 5 6 6 5 6 6 2
20 20 19 19 19 20 19 19 18 17 16 16 15 13 12 12 13 15 16 16 14 13 12 11 11 9 9 11 12 11 10 10 9 10 9 10 9 8 8 8 7 8 8 8 8 8 8 8 7 6 6 6 6 6 6 6 6 7 6 6 6 6 7 6 5 5 5 6 6 6 5 6 4 4 3 3 4 4 4 4 5 4 4 4 2
20 20 20 20 21 20 20 19 18 17 16 15 14 13 14 14 14 14 13 12 12 13 13 13 12 10 10 10 10 11 11 11 10 10 10 10 9 8 9 9 9 8 8 9 8 8 8 8 7 7 6 6 6 5 6 6 6 6 6 7 6 6 6 5 4 4 4 5 6 6 4 4 2 3 3 3 3 4 3 5 4 5 3 3 3
20 20 20 20 19 17 17 16 16 14 13 12 13 15 15 14 14 14 15 16 16 14 13 11 11 11 12 12 12 11 12 11 11 11 10 9 8 9 9 8 8 9 9 9 9 9 9 8 8 7 7 6 6 6 6 6 5 5 6 6 6 6 6 5 4 4 4 5 6 5 5 4 4 5 4 4 5 5 4 5 5 6 4 2 2
22 21 20 18 16 16 15 14 12 13 13 14 13 13 14 15 14 15 14 14 14 14 13 12 11 11 13 12 12 11 12 11 12 11 10 9 9 9 9 8 9 9 10 10 10 9 8 8 7 7 7 6 6 7 6 5 6 6 6 5 6 6 5 5 5 5 5 5 5 6 4 4 4 5 4 4 4 6 5 4 4 6 5 4 2
21 20 18 17 17 17 17 18 17 17 16 16 14 14 15 16 16 15 16 15 14 13 12 12 12 12 14 13 12 11 12 13 13 11 11 9 9 9 8 9 9 9 8 9 9 9 9 8 7 7 7 6 7 6 5 5 6 6 6 6 6 6 5 6 6 6 6 5 5 4 4 2 3 4 4 4 5 5 4 5 4 4 4 3 4
20 17 16 15 15 15 15 15 16 15 15 16 16 16 15 14 15 14 16 15 14 13 12 13 12 13 13 13 13 11 13 14 14 11 12 10 10 9 8 9 9 9 9 8 9 9 9 8 8 8 7 7 7 6 5 6 6 5 6 7 6 5 6 6 6 6 5 5 4 4 3 3 4 6 4 5 5 4 4 4 4 3 4 4 4
19 17 17 16 17 18 18 18 18 17 16 16 16 16 15 15 14 15 15 14 14 12 13 13 14 14 14 14 13 12 13 14 13 11 13 11 11 9 8 9 9 8 8 9 9 9 9 8 8 9 8 8 7 6 7 6 5 4 6 7 6 6 5 6 6 5 5 5 4 4 3 4 5 6 4 5 5 5 4 5 4 4 4 3 4
20 19 18 20 20 19 18 17 17 17 17 16 15 15 14 14 15 14 14 14 14 13 14 14 13 14 14 15 14 13 14 14 13 13 13 12 10 9 9 8 9 10 9 9 10 8 8 9 9 8 8 8 7 6 7 7 6 5 6 6 5 5 5 6 6 5 5 4 4 4 4 5 5 6 4 4 4 4 4 4 4 4 4 4 4
21 20 19 17 17 19 19 19 18 17 15 14 15 15 14 14 15 14 13 13 13 14 15 15 14 14 14 15 14 13 13 12 12 13 12 11 10 10 10 10 8 10 10 10 9 9 8 9 9 8 8 8 7 6 7 7 6 7 7 6 5 6 6 6 5 5 5 5 5 5 5 6 6 5 5 4 4 4 4 3 3 3 3 3 4
17 17 19 19 19 19 19 18 17 15 15 14 13 14 14 14 15 14 12 12 12 14 14 15 15 14 14 14 14 13 12 12 11 12 12 11 11 10 10 9 9 9 9 10 10 10 8 8 8 8 8 7 7 7 7 6 6 7 6 5 6 7 7 5 5 5 4 5 6 6 6 5 5 5 5 4 4 3 2 2 1 1 2 3 3
18 19 20 19 18 17 18 17 16 14 15 15 14 13 12 11 11 12 11 13 13 14 14 15 15 15 14 13 12 12 11 11 12 12 12 11 11 11 10 10 9 8 8 9 8 9 9 8 7 8 8 7 7 7 6 7 7 7 6 6 6 7 7 6 5 5 4 6 6 5 5 4 4 7 8 5 4 3 2 0 1 0 1 1 2
19 19 19 19 20 19 17 16 15 16 16 15 14 14 14 13 13 12 11 10 13 14 14 14 15 14 13 13 13 12 12 12 12 13 12 11 11 10 10 10 10 10 9 9 8 8 9 8 8 7 7 7 7 5 8 12 9 7 6 5 5 6 5 6 6 6 5 6 6 5 5 10 9 8 6 5 4 3 3 2 2 1 1 1 3
18 20 19 18 17 16 17 17 17 18 17 15 14 14 13 13 12 12 12 12 13 14 13 13 13 13 13 13 13 13 13 13 12 12 11 12 11 10 10 10 10 10 10 9 9 9 8 7 8 8 8 7 6 6 12 11 12 12 7 5 5 5 5 5 6 6 5 6 5 5 5 7 7 7 4 6 5 5 5 5 6 6 5 3 4
8 10 12 15 15 16 17 18 18 18 17 16 14 13 13 14 13 12 11 12 12 13 14 14 13 13 14 14 13 14 13 13 12 12 12 12 11 11 10 10 10 11 9 7 8 8 7 7 8 8 8 7 7 9 11 11 13 13 9 6 4 5 5 5 5 6 5 6 5 5 4 4 4 4 4 4 5 5 6 6 7 9 9 8 8
4 4 7 10 14 16 18 16 15 16 16 16 15 14 14 14 13 11 11 12 13 13 14 14 13 13 13 14 14 14 13 13 13 13 12 11 11 11 11 10 10 9 8 8 7 8 8 8 9 9 8 7 7 10 11 11 11 10 10 8 5 5 6 5 5 6 5 5 6 5 4 4 4 8 5 3 2 0 1 4 6 8 10 11 11
8 9 10 11 12 13 15 16 16 16 17 16 15 15 13 12 12 11 13 13 12 13 14 14 14 14 14 13 14 14 14 13 12 12 12 12 11 11 10 9 9 8 9 8 7 9 8 8 9 9 8 7 7 9 11 11 11 11 12 9 4 6 5 6 5 6 6 6 7 7 6 4 4 4 4 5 4 3 2 2 3 3 4 8 9
17 14 13 14 14 13 13 13 14 15 14 14 13 12 13 13 13 13 12 13 14 12 13 14 14 14 14 14 14 14 14 13 13 12 12 12 12 10 10 9 10 10 10 10 10 9 8 8 8 8 8 7 6 11 12 13 12 11 12 8 4 3 5 4 6 5 5 6 7 7 7 6 5 4 4 5 4 3 2 3 3 4 5 5 4
14 15 15 14 13 14 15 14 13 14 14 15 14 13 15 14 13 13 12 12 12 15 13 13 14 14 14 14 15 14 14 13 13 12 12 12 11 11 11 10 9 7 6 7 5 7 8 8 8 9 8 7 7 13 12 12 11 10 11 5 4 3 3 4 4 4 5 7 7 7 5 4 5 5 6 9 6 3 3 2 3 4 5 5 5
11 12 14 15 15 16 16 14 14 15 15 14 14 14 14 14 14 13 13 13 12 12 14 15 16 15 15 14 14 14 14 14 14 14 13 12 11 10 9 9 10 8 9 8 8 7 7 8 7 7 8 8 7 11 13 12 12 11 8 6 4 1 1 3 4 4 4 5 5 5 5 7 6 5 6 8 8 7 3 1 2 3 4 4 5
10 13 16 15 15 13 15 17 17 15 15 14 14 15 15 14 14 14 14 12 14 14 13 13 14 14 15 15 15 15 15 15 14 14 13 11 10 9 11 10 12 11 10 9 9 8 8 7 8 9 9 8 7 10 13 13 13 12 8 6 4 3 0 4 4 4 4 4 4 9 7 7 6 5 7 7 7 5 2 0 1 2 4 4 5
11 11 12 13 13 17 16 16 17 16 15 16 16 17 15 15 14 14 14 14 13 13 15 15 14 14 14 13 13 14 15 15 14 13 11 12 12 12 11 9 9 9 9 8 8 8 7 6 7 8 9 10 8 10 13 14 14 13 9 6 6 3 2 3 4 4 3 4 3 6 10 8 8 8 9 7 7 5 3 1 1 1 3 4 6
13 13 16 15 13 14 15 18 18 17 16 18 17 16 16 16 15 14 15 16 15 14 13 12 13 13 12 12 12 14 14 15 15 12 10 10 9 9 10 10 9 8 9 8 7 8 8 7 7 7 8 9 9 8 10 11 13 13 13 8 7 7 6 5 4 5 5 3 4 4 8 13 13 12 10 9 8 7 4 3 2 2 3 5 3
11 10 12 13 16 18 19 18 15 16 16 17 16 16 15 15 15 13 15 15 15 14 14 13 13 13 12 12 11 13 13 11 11 11 11 10 9 10 10 9 10 8 9 8 8 8 8 7 7 4 6 7 10 11 11 15 14 15 15 13 7 6 4 4 3 4 6 6 6 6 4 11 14 13 12 11 9 8 6 3 4 4 6 4 2
13 16 15 14 14 13 15 15 15 17 17 16 16 16 15 15 16 15 13 11 12 15 14 13 14 13 13 13 12 10 11 12 12 11 10 10 8 9 10 10 9 9 11 10 8 8 8 6 6 6 8 8 9 13 10 13 15 15 14 14 8 5 6 5 3 1 4 6 7 7 6 10 14 13 12 11 10 9 8 3 6 10 10 8 4
11 12 14 16 14 15 15 15 14 15 15 15 17 17 15 14 15 15 13 13 12 14 14 14 14 14 13 13 12 13 12 9 10 11 12 11 10 11 10 10 11 11 11 11 10 9 9 8 7 7 7 8 8 9 15 12 13 14 14 13 11 8 7 5 4 1 0 2 3 6 9 14 15 14 12 11 10 9 6 6 10 9 10 7 4
11 14 14 16 15 14 14 13 13 13 13 14 16 16 15 15 15 12 12 12 13 14 14 14 14 13 12 13 12 12 11 11 13 12 11 12 11 11 10 10 10 10 9 9 8 9 9 10 9 8 7 7 7 8 10 14 12 14 14 14 12 10 9 4 4 2 0 2 2 5 8 13 15 14 12 11 10 8 7 10 10 11 9 4 2
12 12 14 14 16 16 14 13 12 14 13 13 13 15 14 15 13 12 12 12 12 12 12 12 12 12 13 12 12 11 11 11 11 12 12 11 11 11 10 9 9 9 9 9 9 9 10 10 9 8 7 6 6 7 7 10 14 14 14 14 12 10 8 8 4 1 0 1 2 2 8 13 14 13 12 9 6 8 11 10 11 12 8 3 5
8 9 12 12 14 16 17 16 15 15 13 13 13 14 17 13 12 12 12 12 12 12 12 12 12 12 12 13 12 10 10 11 11 10 11 11 13 12 11 10 9 9 9 9 10 9 9 9 9 7 8 8 7 6 7 7 8 10 10 12 11 10 8 7 6 5 5 2 1 5 6 9 9 8 5 4 4 7 10 11 12 10 5 6 5
5 13 4 12 14 15 15 15 15 13 12 11 13 12 13 12 13 11 11 12 12 13 13 12 13 12 12 12 13 10 9 9 9 9 9 9 9 9 10 10 10 10 10 10 10 9 9 9 8 7 7 8 8 7 7 7 7 6 6 6 6 6 7 7 4 4 3 3 1 3 4 6 5 7 7 7 7 7 5 6 6 6 6 6 6
7 2 12 6 8 11 13 12 12 12 12 12 11 12 12 12 12 12 12 12 13 13 13 13 13 11 10 11 11 14 14 10 10 10 10 9 9 10 11 12 12 13 12 11 10 10 10 10 9 8 7 8 8 8 8 8 8 8 8 7 7 7 7 7 6 5 5 3 3 4 3 3 3 3 5 5 6 6 6 5 6 6 6 6 7
7 4 3 3 1 8 11 11 10 10 11 11 11 10 11 12 12 13 13 13 12 13 13 13 11 10 10 9 10 11 10 10 10 10 10 11 14 13 12 9 7 8 11 13 12 10 9 9 8 9 10 9 8 10 12 11 13 13 11 10 9 9 8 8 8 9 4 4 3 5 5 4 5 6 5 7 6 5 6 6 5 6 6 6 7
9 3 1 6 1 1 4 8 7 7 9 10 10 9 9 11 11 12 14 13 12 11 11 11 10 10 10 9 9 9 10 10 10 10 9 6 2 4 6 9 9 10 10 10 11 11 11 8 9 8 10 11 12 9 9 14 14 14 14 15 13 11 11 9 10 14 9 5 6 6 7 7 7 7 6 7 6 6 5 6 7 7 7 6 7
7 6 4 6 4 10 13 12 9 6 7 9 11 11 11 10 11 12 13 15 14 10 9 9 10 9 10 10 9 9 9 9 9 9 8 8 6 6 7 8 7 11 12 13 13 13 13 10 10 8 7 10 10 14 17 16 15 15 16 16 14 13 13 13 13 10 6 7 6 7 7 6 6 6 7 7 6 5 6 6 7 7 7 8 7
Wind_Direction
164 160 160 160 162 165 162 157 153 151 150 160 163 170 163 159 162 167 159 158 155 158 159 162 160 148 137 151 155 157 143 128 126 129 124 130 139 145 148 143 138 133 128 124 136 149 160 185 158 82 91 108 107 122 132 134 132 130 162 129 143 123 106 120 128 117 110 68 42 54 42 20 38 56 52 59 88 98 94 89 105 103 119 96 105
149 150 159 159 161 163 159 157 157 158 162 161 168 170 166 165 165 165 156 164 165 167 162 162 166 164 153 160 156 151 144 136 131 122 128 135 144 154 152 144 141 140 141 135 141 140 144 107 107 103 83 90 111 123 138 171 145 125 139 92 41 141 140 161 156 117 82 136 132 105 13 7 356 34 43 39 52 54 53 44 23 76 72 71 42
161 163 163 165 165 164 162 163 168 165 162 165 168 165 170 171 165 166 168 166 168 167 164 166 169 159 151 157 153 142 133 131 120 126 128 134 146 152 150 140 145 149 157 161 149 142 130 115 108 116 109 98 59 10 193 120 105 118 169 155 116 64 114 133 186 145 145 125 114 99 154 106 330 5 349 53 63 45 60 56 51 56 108 65 69
163 164 165 166 164 165 163 166 168 165 168 170 171 171 167 170 169 171 172 166 170 171 169 170 162 152 145 148 147 129 134 118 108 108 106 112 125 141 125 131 138 148 155 149 141 125 118 119 118 73 89 109 117 74 200 140 167 99 148 177 126 152 156 125 72 91 127 138 144 197 181 133 133 263 200 284 86 79 74 55 36 44 18 16 27
163 166 165 163 165 169 170 169 166 171 176 176 176 175 169 169 174 174 169 170 170 169 172 160 150 147 126 101 105 102 104 113 115 111 119 119 114 115 133 135 138 142 128 113 101 102 101 102 102 106 109 93 99 98 141 142 138 164 123 108 122 159 155 136 16 79 117 168 143 125 112 191 203 191 131 301 67 78 63 105 318 357 54 20 42
165 169 171 173 171 168 166 166 172 177 178 181 175 171 164 169 169 167 174 168 171 174 175 169 166 158 140 142 143 139 138 142 146 147 143 140 143 144 126 128 140 142 122 109 102 93 82 80 94 109 102 95 97 124 87 50 41 57 38 135 96 149 146 122 112 19 123 128 148 167 167 170 154 175 106 204 301 209 197 195 160 264 83 9 298
171 170 169 166 169 169 172 175 178 179 181 173 169 172 168 166 164 173 174 169 172 177 177 175 167 161 154 155 151 149 144 142 137 139 139 144 136 144 150 142 142 123 123 119 121 117 113 122 107 126 101 83 93 84 75 93 78 70 64 67 69 101 125 126 148 168 47 13 85 148 147 143 139 135 199 112 127 302 239 178 251 271 281 331 348
170 172 172 171 174 174 178 181 179 179 172 167 172 173 171 167 170 172 168 173 178 172 176 177 171 158 154 153 152 148 147 147 148 145 140 137 139 148 147 147 149 123 134 131 125 126 127 120 104 138 126 108 81 84 90 91 81 70 67 82 73 65 119 136 158 153 141 192 350 89 73 99 134 115 130 167 156 165 246 302 226 213 268 277 264
169 172 177 179 179 180 178 176 176 166 169 175 175 174 166 167 170 166 171 173 180 176 173 175 168 158 154 151 147 145 139 140 142 143 140 137 131 144 140 159 159 140 123 128 130 133 133 138 111 111 114 98 99 91 84 83 92 88 78 69 75 64 76 106 104 87 88 86 75 14 46 53 66 68 70 92 139 126 199 180 229 309 357 311 298
177 175 177 182 180 180 176 169 164 173 176 169 169 167 165 167 170 170 173 174 176 180 174 172 161 157 157 160 151 149 141 139 142 146 143 141 141 147 154 143 140 134 120 125 116 116 120 98 83 88 102 105 100 104 95 86 82 91 101 105 97 89 85 93 101 103 93 74 80 106 76 36 39 30 21 20 45 85 160 199 201 189 209 274 270
180 178 177 180 180 171 162 166 172 169 168 169 170 170 167 167 169 174 175 171 174 179 173 172 163 167 167 164 158 153 149 146 146 148 144 144 150 160 159 163 138 113 103 112 101 94 98 109 107 102 104 109 108 104 109 112 105 104 105 97 92 97 97 94 90 85 86 78 71 81 90 94 111 105 60 39 100 85 57 16 310 183 201 232 251
175 175 175 167 159 162 165 167 170 172 167 172 176 171 172 170 169 175 174 175 175 175 172 171 169 173 175 166 161 158 153 154 156 157 158 155 158 163 163 152 136 122 112 109 103 98 95 95 97 95 101 109 116 124 125 119 109 94 84 86 87 86 86 86 89 85 82 84 80 80 88 94 79 87 106 89 82 94 123 141 70 339 305 258 333
172 174 168 166 165 165 170 172 172 172 176 177 175 175 175 175 173 175 178 176 176 176 175 174 173 179 177 169 162 158 156 156 156 156 160 155 158 155 159 150 148 129 125 119 124 118 106 92 95 98 95 102 113 114 115 102 97 95 96 91 89 85 88 92 88 89 94 94 103 88 86 73 73 71 76 88 86 101 91 73 290 162 133 283 281
176 174 169 166 166 169 172 174 178 178 176 175 176 176 178 180 176 177 178 176 175 175 177 179 181 180 178 167 162 157 156 157 157 157 160 155 156 158 158 150 149 148 137 134 133 127 112 117 108 107 109 109 114 116 111 107 101 99 96 92 90 93 88 87 93 93 88 93 91 81 69 74 71 66 71 63 59 58 49 56 1 0 84 14 319
174 171 166 164 166 169 174 178 179 179 177 177 177 179 178 182 180 179 174 176 172 178 179 181 181 180 178 164 160 156 154 156 156 158 158 153 156 157 156 149 144 146 140 147 129 128 121 118 115 108 106 103 99 99 100 98 98 96 96 99 93 92 92 91 88 92 90 87 79 83 81 67 64 61 63 56 66 76 92 89 81 58 0 26 14
168 165 160 164 168 171 173 175 178 178 178 179 181 179 182 186 183 180 177 173 173 176 181 180 180 178 175 162 161 156 153 150 151 156 157 155 159 159 157 152 146 142 142 150 131 129 124 119 116 116 115 112 104 106 107 105 106 107 107 107 104 101 98 96 100 98 99 97 93 86 80 76 68 62 59 57 58 79 82 85 85 84 98 9 352
159 161 162 166 170 173 174 173 175 175 177 183 186 182 182 182 181 179 177 174 175 179 179 179 179 177 175 162 160 158 156 158 160 161 156 155 157 159 156 154 146 142 146 137 123 130 126 125 122 124 122 114 110 114 115 117 114 110 113 110 112 115 107 107 102 97 98 97 92 96 102 94 80 67 54 53 47 44 75 91 93 97 104 102 31
160 162 165 168 171 174 176 177 176 177 180 184 185 182 181 181 181 178 175 177 178 178 179 181 180 176 172 165 162 159 159 159 158 159 154 152 156 155 149 147 149 140 134 131 130 131 131 127 126 130 125 122 126 123 122 121 115 114 119 116 121 115 105 92 92 100 102 103 101 92 92 94 92 82 89 72 63 70 66 84 104 110 111 105 148
159 161 163 167 172 176 176 176 179 176 174 178 181 175 176 179 179 178 180 182 177 176 178 181 181 175 171 167 160 158 157 156 155 154 153 155 158 156 152 149 130 131 128 130 130 125 126 127 126 130 128 127 126 127 122 119 123 125 125 118 114 110 108 108 109 107 114 110 110 106 95 101 109 118 106 74 56 63 69 73 84 103 100 113 115
160 161 166 171 176 176 172 172 173 172 171 174 173 173 177 178 174 177 176 177 179 181 180 180 178 169 165 160 160 157 156 155 155 155 157 158 158 150 148 140 138 136 131 132 128 129 130 129 130 131 128 131 127 128 127 129 132 134 130 123 125 116 114 117 116 116 111 101 97 92 87 82 69 71 71 67 40 21 56 63 48 79 85 104 110
160 162 169 174 174 171 168 168 169 167 167 168 172 176 177 176 178 175 176 180 186 184 177 176 169 166 161 163 160 158 155 153 154 157 155 158 150 147 147 144 134 141 138 136 133 134 133 133 134 133 137 137 133 135 138 139 137 135 132 131 127 119 119 126 119 100 97 103 95 90 78 78 93 82 81 56 45 37 35 60 68 64 46 32 92
161 168 170 170 166 161 157 158 159 161 166 173 174 172 175 180 181 178 179 185 184 182 179 171 167 163 162 162 161 158 155 155 155 157 156 153 149 148 146 137 137 145 142 140 139 137 136 138 136 140 141 140 140 144 148 142 140 138 137 130 127 125 125 117 105 107 98 99 105 97 91 89 91 103 85 67 55 39 32 50 51 66 36 17 10
165 167 166 162 160 159 160 161 165 168 173 175 174 177 178 181 181 182 183 185 184 181 173 167 164 165 163 162 162 160 157 157 157 158 154 148 148 147 149 138 138 142 140 141 141 139 141 142 140 144 145 145 146 149 147 137 145 145 137 131 133 133 127 119 112 109 113 114 106 116 134 120 78 78 77 71 54 43 45 55 46 52 56 29 27
164 161 156 154 153 153 154 160 166 171 174 176 180 182 180 179 182 181 184 181 180 178 169 166 165 165 161 162 165 162 159 159 160 158 149 148 148 151 152 142 142 143 139 140 140 142 143 147 146 149 150 150 151 150 143 144 147 142 130 131 134 130 127 122 121 123 124 115 121 121 144 126 100 89 78 65 46 45 42 44 50 35 57 29 18
159 154 151 149 153 159 165 169 171 174 177 179 180 182 180 180 179 181 182 179 179 172 166 167 165 164 164 164 166 164 161 161 159 153 147 148 150 151 152 144 143 148 143 142 143 143 146 150 152 155 155 155 159 153 146 146 144 134 128 132 132 132 131 132 133 137 130 128 131 144 147 98 97 97 76 68 54 43 31 40 47 37 41 26 16
158 154 152 157 164 168 168 170 172 175 178 179 179 179 179 179 180 179 178 177 178 168 168 166 164 163 166 165 166 166 162 160 155 150 149 149 151 152 153 151 149 149 146 149 147 149 152 155 157 158 155 158 158 152 148 147 146 133 131 131 135 133 133 135 137 134 132 133 131 120 99 87 92 98 93 76 63 55 46 46 41 33 31 27 23
156 156 160 161 162 168 172 172 174 175 175 177 177 177 177 178 179 178 178 176 173 168 167 165 163 163 165 167 167 166 160 155 152 150 149 150 153 156 156 159 156 147 149 150 150 149 156 155 160 155 157 159 156 149 147 149 148 142 138 144 137 129 130 125 122 125 126 122 118 106 88 90 94 101 99 97 87 58 65 58 60 44 30 43 11
152 153 156 162 169 172 174 175 172 171 171 172 176 177 176 177 179 176 170 169 170 167 165 164 162 163 166 167 164 161 156 150 148 149 151 153 156 159 161 158 152 148 150 153 156 156 156 153 158 156 157 155 152 153 155 153 143 144 141 140 132 132 131 127 126 131 124 121 109 101 107 110 114 117 117 118 108 106 73 58 334 52 36 30 356
154 160 164 166 168 172 173 175 173 167 166 171 173 175 174 176 173 172 165 168 163 163 164 162 162 163 164 161 157 154 152 149 149 150 153 157 160 161 160 157 148 146 151 155 154 152 153 154 157 153 155 155 154 154 152 147 137 127 132 144 137 138 138 136 138 134 132 111 105 118 117 127 128 128 127 135 150 142 124 103 302 48 4 346 327
163 165 169 171 170 170 170 167 168 170 171 171 172 175 176 173 173 169 163 159 159 163 163 162 163 162 157 155 151 150 152 153 155 157 158 159 160 160 159 155 149 150 153 154 153 157 157 158 157 152 148 142 142 146 143 136 141 151 149 142 141 144 141 140 140 139 132 119 131 134 146 142 139 140 146 157 175 198 202 191 220 249 269 311 303
164 165 169 170 167 165 163 166 171 173 173 171 171 173 170 169 169 167 162 161 161 159 160 161 161 157 154 151 149 151 154 159 159 158 159 161 162 159 158 154 150 153 157 158 157 161 160 157 148 142 138 138 140 145 136 148 159 142 140 143 141 151 145 140 143 148 151 141 147 147 142 148 151 163 175 194 202 215 233 253 269 263 246 245 273
153 166 163 160 161 161 166 173 175 171 169 168 169 168 166 171 168 165 159 157 161 161 160 161 155 154 154 152 151 152 157 160 160 161 163 164 160 158 158 154 152 155 157 152 160 159 139 138 136 137 138 136 138 142 144 167 153 141 140 148 148 153 155 149 151 157 161 145 153 148 155 151 160 177 191 207 226 234 240 257 272 277 277 263 237
109 150 162 161 164 169 172 173 168 166 167 170 166 164 168 167 165 159 150 157 161 162 160 157 156 154 156 154 153 157 160 161 164 162 163 163 161 159 157 155 155 151 142 147 150 136 140 141 141 140 136 133 132 149 157 161 145 143 150 152 155 156 155 169 160 166 171 153 156 154 167 175 186 197 196 191 186 174 197 245 260 276 281 272 257
178 198 175 172 173 175 175 170 167 167 167 166 167 164 161 158 155 151 158 157 159 163 161 159 157 157 156 156 156 158 160 162 163 164 163 164 162 162 157 147 140 140 140 136 136 138 141 146 145 140 136 137 138 156 149 140 141 144 152 144 153 162 155 175 171 178 179 167 160 163 174 193 205 199 144 142 116 99 70 22 340 313 295 298 294
184 191 181 176 175 169 167 165 164 164 161 156 157 152 151 155 156 158 162 159 160 162 163 158 157 158 157 158 159 161 160 161 164 166 167 167 164 156 147 145 148 151 149 151 149 145 147 143 141 138 141 144 152 161 154 146 149 149 134 114 99 153 171 174 189 189 177 171 165 167 175 184 176 150 157 133 119 115 80 28 352 322 316 297 312
185 182 179 176 170 164 166 169 163 154 157 158 156 150 151 155 155 158 162 159 163 162 163 157 155 157 160 162 161 162 160 161 165 168 169 168 164 156 147 143 138 129 122 123 127 136 145 147 145 148 143 148 157 164 161 155 151 148 138 125 114 108 169 181 169 155 155 157 157 163 168 157 141 151 145 134 135 118 82 46 343 320 319 330 333
173 171 181 177 172 169 166 155 155 158 154 154 150 149 148 150 156 159 160 158 156 162 161 160 157 159 160 161 162 160 162 165 167 169 172 167 157 148 140 141 141 143 141 145 148 149 148 147 147 151 152 155 159 178 169 164 157 152 138 134 129 110 86 145 157 162 148 149 156 161 145 135 146 153 157 139 136 110 92 52 336 330 319 331 308
174 171 174 178 174 162 156 154 155 154 151 146 148 147 148 153 158 158 157 158 160 161 160 157 157 158 159 161 164 165 165 167 169 172 171 164 151 146 150 156 156 156 155 156 152 153 161 158 154 159 164 157 167 182 177 169 164 163 157 151 147 143 115 157 164 162 161 161 171 171 157 135 151 158 166 150 140 119 109 108 8 350 330 323 305
161 163 166 167 163 159 157 153 151 150 151 148 147 148 151 157 159 161 159 158 163 162 161 160 157 157 159 161 165 167 167 165 169 172 165 158 154 155 156 154 151 149 150 149 155 157 159 159 161 159 153 158 169 177 186 177 170 169 161 158 151 148 145 191 164 185 187 176 201 175 132 137 148 165 167 164 158 142 142 171 194 301 291 289 266
170 171 164 160 149 142 149 154 157 155 147 147 149 153 157 157 159 163 163 165 167 165 159 152 152 158 160 160 165 168 166 168 169 162 156 153 145 142 150 149 147 150 148 150 149 153 158 170 169 167 162 158 161 169 183 184 172 178 171 164 167 171 171 198 188 182 197 204 182 165 145 145 152 161 171 171 174 166 155 190 177 202 244 270 265
160 151 140 145 153 156 159 157 152 147 146 149 150 152 157 157 155 164 173 168 158 153 157 156 157 159 162 163 166 173 166 155 153 159 152 147 148 148 146 146 148 147 148 154 155 157 163 172 176 149 152 165 168 174 181 177 189 188 182 172 172 165 156 165 186 197 197 187 186 180 174 164 161 168 172 178 176 179 179 177 191 210 214 224 342
153 149 148 146 149 149 146 145 147 150 149 149 149 152 157 158 161 168 167 151 148 153 157 158 161 164 165 165 166 160 157 165 161 152 150 149 145 147 151 150 150 153 158 161 160 164 169 163 169 154 165 176 179 167 168 186 191 197 189 175 164 159 146 131 104 134 219 199 183 189 183 186 174 172 177 180 181 182 190 192 223 225 239 258 285
132 147 149 143 144 148 149 146 149 150 150 151 151 152 157 160 168 166 156 152 149 157 159 159 162 165 166 164 164 160 158 158 160 158 154 152 151 151 154 157 158 161 163 167 172 167 164 170 160 165 173 173 172 172 169 180 197 197 191 182 156 133 135 120 121 112 323 266 253 201 197 185 183 180 180 181 182 192 186 222 236 242 246 255 265
151 146 147 143 141 143 140 140 144 147 148 151 152 154 158 162 165 156 155 152 152 159 160 160 162 160 155 158 155 155 155 156 156 154 152 149 153 153 155 161 161 163 166 162 168 163 165 170 166 162 167 170 174 171 182 182 186 197 190 186 168 152 141 132 122 145 174 260 257 206 209 190 186 183 181 181 187 187 211 233 241 250 254 248 251
145 142 141 140 140 140 138 137 142 148 152 153 156 150 154 160 161 154 157 157 153 153 153 156 152 146 148 149 151 152 151 151 152 152 152 154 154 153 152 161 163 166 167 168 164 165 169 170 169 162 161 168 175 172 174 194 190 191 190 189 189 184 171 143 140 194 115 1 291 279 211 184 177 176 179 183 197 221 232 241 250 256 263 260 246
20 116 133 135 138 141 143 145 150 154 157 157 155 152 155 161 156 155 154 154 149 147 145 147 144 146 148 148 148 149 147 151 152 155 157 161 160 161 160 163 167 168 168 163 163 165 168 168 171 164 161 167 169 162 181 189 198 192 190 191 190 186 179 176 170 176 170 238 350 88 121 149 156 163 163 186 220 234 238 238 245 252 254 246 245
317 329 330 144 145 145 146 146 148 153 151 156 152 155 156 156 161 153 151 150 148 143 142 145 149 149 150 152 149 149 146 147 151 150 153 156 160 162 161 163 166 166 168 168 168 168 165 170 169 176 161 165 169 175 179 187 187 186 191 185 176 183 174 166 176 193 199 255 263 166 157 167 174 185 194 213 227 248 258 257 248 240 235 234 233
21 16 323 328 134 140 142 144 143 149 150 151 154 159 160 155 155 148 149 146 144 146 146 148 149 149 149 150 149 147 148 152 156 156 157 160 168 169 168 172 174 175 173 175 173 174 175 175 180 179 170 167 177 182 184 180 187 187 189 181 183 183 182 179 180 190 188 201 196 210 185 196 201 220 226 243 246 245 248 256 259 251 245 243 240
89 255 180 317 256 153 147 143 142 144 145 146 148 153 153 154 152 148 146 145 145 145 145 146 144 140 142 146 147 153 155 156 159 164 172 174 172 174 176 182 186 177 177 171 173 178 181 184 181 181 178 181 177 190 202 189 184 186 182 181 186 194 187 188 188 170 175 198 176 175 193 207 208 216 229 235 245 255 266 256 262 261 250 247 247
130 232 71 78 334 118 122 137 137 137 135 138 138 138 142 146 145 147 145 142 143 144 141 143 144 144 144 144 149 156 157 160 162 164 161 161 132 160 178 171 170 174 169 172 172 176 184 181 181 191 186 183 195 197 161 175 182 183 190 194 199 188 181 179 175 178 171 180 186 182 194 196 207 211 222 234 239 246 260 275 269 264 261 250 240
117 113 87 106 141 188 169 159 155 142 129 134 136 143 144 140 137 142 146 146 145 140 139 143 148 150 152 151 153 156 159 159 161 160 160 158 147 133 142 150 158 167 171 172 177 183 185 182 178 181 196 189 157 144 162 180 182 185 187 191 191 189 185 181 172 167 185 189 194 190 206 203 206 208 218 229 237 244 254 256 265 268 263 247 237